• In Uzbekistan
  • List of Countries
  • For 7 days
  • Water Temperature
  • Satellite Maps
  • Weather Map
  • Weather Widgets
  • user-avatar
    Login

    Hourly Weather Vólosz

    Today, 18 December, Monday

    Time Temperature Precipitation Wind Pressure Humidity
    00:00 +7°C° 0 mm 3 mps 720 mmHg 68%
    01:00 +7°C° 0 mm 3 mps 720 mmHg 70%
    02:00 +7°C° 0 mm 3 mps 721 mmHg 72%
    03:00 +5°C° 0 mm 3 mps 721 mmHg 73%
    04:00 +5°C° 0 mm 3 mps 721 mmHg 74%
    05:00 +5°C° 0 mm 3 mps 721 mmHg 76%
    06:00 +5°C° 0.1 mm 3 mps 721 mmHg 76%
    07:00 +5°C° 0.1 mm 3 mps 721 mmHg 77%
    08:00 +5°C° 0 mm 3 mps 721 mmHg 78%
    09:00 +5°C° 0.5 mm 3 mps 721 mmHg 77%
    10:00 +5°C° 0.5 mm 3 mps 721 mmHg 76%
    11:00 +5°C° 0.5 mm 3 mps 721 mmHg 76%
    12:00 +5°C° 0.7 mm 3 mps 721 mmHg 77%
    13:00 +5°C° 0.7 mm 3 mps 720 mmHg 77%
    14:00 +5°C° 0.7 mm 4 mps 720 mmHg 78%
    15:00 +5°C° 1.2 mm 4 mps 720 mmHg 80%
    16:00 +5°C° 1.2 mm 4 mps 720 mmHg 82%
    17:00 +4°C° 1.2 mm 4 mps 719 mmHg 83%
    18:00 +4°C° 0.9 mm 4 mps 720 mmHg 83%
    19:00 +4°C° 0.9 mm 4 mps 720 mmHg 82%
    20:00 +4°C° 0.9 mm 4 mps 720 mmHg 81%
    21:00 +4°C° 0 mm 4 mps 721 mmHg 81%
    22:00 +3°C° 0 mm 4 mps 722 mmHg 80%
    23:00 +3°C° 0 mm 4 mps 722 mmHg 80%

    Tomorrow, 19 December, Tuesday

    Time Temperature Precipitation Wind Pressure Humidity
    00:00 +3°C° 0 mm 4 mps 723 mmHg 80%
    01:00 +3°C° 0 mm 4 mps 723 mmHg 79%
    02:00 +3°C° 0 mm 4 mps 724 mmHg 79%
    03:00 +1°C° 0 mm 4 mps 724 mmHg 79%
    04:00 +1°C° 0 mm 4 mps 725 mmHg 79%
    05:00 +1°C° 0 mm 4 mps 725 mmHg 78%
    06:00 +1°C° 0 mm 4 mps 725 mmHg 78%
    07:00 0°C° 0 mm 4 mps 726 mmHg 78%
    08:00 0°C° 0 mm 4 mps 726 mmHg 77%
    09:00 +1°C° 0 mm 4 mps 727 mmHg 73%
    10:00 +3°C° 0 mm 4 mps 728 mmHg 69%
    11:00 +4°C° 0 mm 4 mps 728 mmHg 65%
    12:00 +4°C° 0 mm 4 mps 728 mmHg 64%
    13:00 +4°C° 0 mm 4 mps 728 mmHg 63%
    14:00 +4°C° 0 mm 4 mps 728 mmHg 62%
    15:00 +4°C° 0 mm 4 mps 728 mmHg 63%
    16:00 +3°C° 0 mm 4 mps 728 mmHg 64%
    17:00 +3°C° 0 mm 4 mps 728 mmHg 65%
    18:00 +3°C° 0 mm 4 mps 728 mmHg 65%
    19:00 +1°C° 0 mm 4 mps 728 mmHg 65%
    20:00 +1°C° 0 mm 4 mps 729 mmHg 66%
    21:00 +1°C° 0 mm 4 mps 729 mmHg 66%
    22:00 +1°C° 0 mm 4 mps 729 mmHg 66%
    23:00 0°C° 0 mm 4 mps 729 mmHg 67%

    Day after tomorrow, 20 December, Wednesday

    Time Temperature Precipitation Wind Pressure Humidity
    00:00 0°C° 0 mm 4 mps 729 mmHg 68%
    01:00 0°C° 0 mm 4 mps 729 mmHg 69%
    02:00 -1°C° 0 mm 4 mps 729 mmHg 69%
    03:00 -1°C° 0 mm 4 mps 729 mmHg 70%
    04:00 -1°C° 0 mm 4 mps 729 mmHg 70%
    05:00 -1°C° 0 mm 4 mps 729 mmHg 71%
    06:00 -2°C° 0 mm 4 mps 729 mmHg 71%
    07:00 -2°C° 0 mm 4 mps 729 mmHg 72%
    08:00 -2°C° 0 mm 4 mps 729 mmHg 72%
    09:00 -1°C° 0 mm 4 mps 730 mmHg 68%
    10:00 0°C° 0 mm 4 mps 730 mmHg 64%
    11:00 +1°C° 0 mm 4 mps 730 mmHg 59%
    12:00 +1°C° 0 mm 4 mps 730 mmHg 59%
    13:00 +2°C° 0 mm 3 mps 729 mmHg 58%
    14:00 +3°C° 0 mm 3 mps 729 mmHg 57%
    15:00 +3°C° 0.1 mm 3 mps 729 mmHg 59%
    16:00 +2°C° 0.1 mm 3 mps 729 mmHg 62%
    17:00 +2°C° 0.1 mm 3 mps 729 mmHg 65%
    18:00 +2°C° 0.1 mm 3 mps 729 mmHg 66%
    19:00 +2°C° 0.1 mm 3 mps 729 mmHg 67%
    20:00 +3°C° 0.1 mm 2 mps 730 mmHg 68%
    21:00 +2°C° 0.1 mm 3 mps 730 mmHg 69%
    22:00 +2°C° 0.1 mm 3 mps 730 mmHg 71%
    23:00 +2°C° 0.1 mm 3 mps 730 mmHg 72%

    21 December, Thursday

    Time Temperature Precipitation Wind Pressure Humidity
    00:00 +2°C° 0.2 mm 3 mps 730 mmHg 73%
    01:00 +2°C° 0.2 mm 3 mps 729 mmHg 74%
    02:00 +2°C° 0.2 mm 3 mps 729 mmHg 75%
    03:00 +1°C° 0.3 mm 3 mps 729 mmHg 76%
    04:00 +1°C° 0.3 mm 3 mps 729 mmHg 77%
    05:00 +1°C° 0.3 mm 3 mps 729 mmHg 78%
    06:00 +1°C° 0.4 mm 3 mps 729 mmHg 78%
    07:00 +1°C° 0.4 mm 3 mps 729 mmHg 79%
    08:00 +1°C° 0.4 mm 3 mps 729 mmHg 80%
    09:00 +1°C° 0.3 mm 4 mps 729 mmHg 78%
    10:00 +1°C° 0.3 mm 4 mps 729 mmHg 77%
    11:00 +3°C° 0.3 mm 4 mps 729 mmHg 76%
    12:00 +3°C° 0.2 mm 4 mps 729 mmHg 75%
    13:00 +3°C° 0.2 mm 4 mps 729 mmHg 74%
    14:00 +3°C° 0.2 mm 4 mps 728 mmHg 73%
    15:00 +3°C° 0.2 mm 4 mps 728 mmHg 75%
    16:00 +3°C° 0.2 mm 4 mps 728 mmHg 76%
    17:00 +3°C° 0.2 mm 3 mps 728 mmHg 77%
    18:00 +3°C° 0.2 mm 3 mps 728 mmHg 77%
    19:00 +3°C° 0.2 mm 3 mps 729 mmHg 77%
    20:00 +3°C° 0.2 mm 3 mps 729 mmHg 77%
    21:00 +2°C° 0.1 mm 3 mps 729 mmHg 76%
    22:00 +2°C° 0.1 mm 3 mps 729 mmHg 76%
    23:00 +2°C° 0.1 mm 3 mps 729 mmHg 75%

    22 December, Friday

    Time Temperature Precipitation Wind Pressure Humidity
    00:00 +1°C° 0 mm 4 mps 729 mmHg 74%
    01:00 +1°C° 0 mm 4 mps 729 mmHg 74%
    02:00 0°C° 0 mm 4 mps 729 mmHg 73%
    03:00 0°C° 0 mm 4 mps 728 mmHg 73%
    04:00 0°C° 0 mm 4 mps 728 mmHg 73%
    05:00 0°C° 0 mm 3 mps 728 mmHg 73%
    06:00 0°C° 0 mm 3 mps 728 mmHg 73%
    07:00 0°C° 0 mm 3 mps 728 mmHg 74%
    08:00 0°C° 0 mm 3 mps 728 mmHg 74%
    09:00 +1°C° 0 mm 3 mps 729 mmHg 70%
    10:00 +2°C° 0 mm 3 mps 729 mmHg 66%
    11:00 +3°C° 0 mm 4 mps 729 mmHg 61%
    12:00 +3°C° 0 mm 3 mps 728 mmHg 59%
    13:00 +4°C° 0 mm 3 mps 728 mmHg 56%
    14:00 +4°C° 0 mm 3 mps 727 mmHg 53%
    15:00 +4°C° 0 mm 3 mps 727 mmHg 55%
    16:00 +3°C° 0 mm 3 mps 727 mmHg 56%
    17:00 +3°C° 0 mm 3 mps 726 mmHg 58%
    18:00 +2°C° 0 mm 3 mps 726 mmHg 58%
    19:00 +2°C° 0 mm 3 mps 726 mmHg 59%
    20:00 +2°C° 0 mm 3 mps 727 mmHg 60%
    21:00 +2°C° 0 mm 3 mps 726 mmHg 60%
    22:00 +2°C° 0 mm 3 mps 726 mmHg 61%
    23:00 0°C° 0 mm 4 mps 726 mmHg 62%

    23 December, Saturday

    Time Temperature Precipitation Wind Pressure Humidity
    00:00 0°C° 0 mm 4 mps 725 mmHg 61%
    01:00 0°C° 0 mm 4 mps 725 mmHg 61%
    02:00 0°C° 0 mm 4 mps 724 mmHg 61%
    03:00 0°C° 0 mm 5 mps 724 mmHg 61%
    04:00 0°C° 0 mm 5 mps 724 mmHg 61%
    05:00 -1°C° 0 mm 5 mps 723 mmHg 62%
    06:00 -2°C° 0 mm 6 mps 723 mmHg 62%
    07:00 -2°C° 0 mm 6 mps 723 mmHg 62%
    08:00 -2°C° 0 mm 6 mps 723 mmHg 63%
    09:00 +1°C° 0 mm 6 mps 723 mmHg 59%
    10:00 +2°C° 0 mm 7 mps 723 mmHg 55%
    11:00 +3°C° 0 mm 7 mps 723 mmHg 52%
    12:00 +3°C° 0 mm 7 mps 722 mmHg 50%
    13:00 +4°C° 0 mm 7 mps 722 mmHg 49%
    14:00 +4°C° 0 mm 7 mps 721 mmHg 47%
    15:00 +3°C° 0 mm 7 mps 721 mmHg 49%
    16:00 +3°C° 0 mm 7 mps 721 mmHg 51%
    17:00 +2°C° 0 mm 6 mps 721 mmHg 53%
    18:00 +1°C° 0 mm 6 mps 722 mmHg 54%
    19:00 +1°C° 0 mm 6 mps 722 mmHg 54%
    20:00 -1°C° 0 mm 6 mps 723 mmHg 55%
    21:00 -1°C° 0 mm 6 mps 723 mmHg 56%
    22:00 -1°C° 0 mm 6 mps 723 mmHg 56%
    23:00 -1°C° 0 mm 5 mps 723 mmHg 57%
    Show more